CW1309 Weather Reports


Display with metric or nautical units.
time (UTC)temp
F
wind
direction
speed
MPH
gust
MPH
rain 1hr
in
rain 24hr
in
rain mn
in
humidity
%
barometer
mb
20260507103050 62 325 10.0 16.0 0.00 0.00 0.00 90 1016.2
20260507101552 62 336 8.0 13.0 0.00 0.00 0.00 91 1015.8
20260507100048 62 360 9.0 15.0 0.00 0.00 0.00 90 1015.8
20260507094544 63 332 7.0 12.0 0.00 0.00 0.00 90 1015.7
20260507093049 63 22 5.0 12.0 0.00 0.00 0.00 90 1015.8
20260507091540 63 9 5.0 12.0 0.00 0.00 0.00 90 1015.7
20260507090038 63 321 4.0 12.0 0.00 0.00 0.00 90 1015.9
20260507084538 63 16 7.0 11.0 0.00 0.00 0.00 90 1015.6
20260507083036 63 46 6.0 11.0 0.00 0.00 0.00 90 1015.4
20260507081637 63 12 5.0 11.0 0.00 0.00 0.00 90 1015.5
20260507080039 63 24 6.0 12.0 0.00 0.00 0.00 90 1015.4
20260507074532 63 28 6.0 14.0 0.00 0.00 0.00 90 1015.5
20260507073031 63 9 7.0 10.0 0.00 0.00 0.00 90 1015.5
20260507071557 63 5 5.0 10.0 0.00 0.00 0.00 89 1015.6
20260507070032 63 11 2.0 10.0 0.00 0.00 0.00 90 1015.7
20260507064530 63 29 4.0 10.0 0.00 0.00 0.00 89 1015.7
20260507063027 63 44 6.0 13.0 0.00 0.00 0.00 89 1015.7
20260507061525 63 26 9.0 15.0 0.00 0.00 0.00 89 1015.5
20260507060024 63 49 7.0 14.0 0.00 0.00 0.00 89 1015.1
20260507054521 63 355 6.0 13.0 0.00 0.00 0.00 89 1015.5
20260507053020 64 57 5.0 13.0 0.00 0.00 0.00 89 1015.5
20260507051528 64 360 5.0 17.0 0.00 0.00 0.00 89 1015.6
20260507050013 64 12 9.0 14.0 0.00 0.00 0.00 89 1015.7
20260507044510 64 5 6.0 18.0 0.00 0.00 0.00 90 1015.3
20260507043011 64 347 8.0 16.0 0.00 0.00 0.00 89 1015.2
20260507041506 64 5 9.0 16.0 0.00 0.00 0.00 89 1015.0
20260507040004 64 39 4.0 11.0 0.00 0.00 0.00 90 1015.0
20260507034505 64 19 6.0 12.0 0.00 0.00 0.00 90 1014.9
20260507033003 64 355 6.0 11.0 0.00 0.00 0.00 89 1015.0
20260507031559 64 21 6.0 12.0 0.00 0.00 0.00 89 1014.7
20260507030059 64 344 8.0 16.0 0.00 0.00 0.00 89 1014.7
20260507024604 64 355 6.0 14.0 0.00 0.00 0.00 89 1014.4
20260507023055 64 330 3.0 13.0 0.00 0.00 0.00 89 1014.1
20260507021554 64 5 6.0 12.0 0.00 0.00 0.00 89 1013.9
20260506231538 71 338 6.0 18.0 0.00 0.00 0.00 85 1011.6
20260506230037 71 336 12.0 22.0 0.00 0.00 0.00 85 1011.4
20260506224532 73 355 11.0 19.0 0.00 0.00 0.00 84 1011.1
20260506223027 74 23 6.0 19.0 0.00 0.00 0.00 85 1010.8
20260506221526 75 338 11.0 18.0 0.00 0.00 0.00 85 1010.6
20260506220034 77 77 6.0 17.0 0.00 0.00 0.00 85 1010.2
20260506214526 78 26 10.0 18.0 0.00 0.00 0.00 86 1010.0
20260506213029 79 40 10.0 17.0 0.00 0.00 0.00 86 1010.0
20260506211522 80 51 11.0 17.0 0.00 0.00 0.00 85 1010.2
20260506210023 81 10 9.0 16.0 0.00 0.00 0.00 85 1010.4
20260506204521 81 29 10.0 16.0 0.00 0.00 0.00 84 1010.3
20260506203021 83 5 8.0 12.0 0.00 0.00 0.00 84 1010.3
20260506201520 82 337 8.0 14.0 0.00 0.00 0.00 84 1010.2
20260506200022 83 29 5.0 12.0 0.00 0.00 0.00 84 1010.3
20260506194519 84 313 6.0 11.0 0.00 0.00 0.00 83 1010.0
20260506193016 84 5 3.0 6.0 0.00 0.00 0.00 85 1010.1
20260506191514 83 34 4.0 9.0 0.00 0.00 0.00 86 1010.3
20260506190022 81 58 3.0 9.0 0.00 0.00 0.00 86 1010.2
20260506184516 79 63 4.0 8.0 0.00 0.00 0.00 88 1010.6
20260506181516 77 360 7.0 12.0 0.00 0.00 0.00 90 1011.1
20260506180012 78 360 7.0 16.0 0.00 0.00 0.00 86 1011.2
20260506174510 83 71 2.0 8.0 0.00 0.00 0.00 87 1011.1
20260506173009 83 36 2.0 6.0 0.00 0.00 0.00 89 1011.3
20260506171504 80 66 4.0 10.0 0.00 0.00 0.00 93 1011.4
20260506170100 79 65 5.0 10.0 0.00 0.00 0.00 96 1011.7
20260506164557 78 53 3.0 9.0 0.00 0.00 0.00 97 1011.8
20260506163103 78 15 3.0 8.0 0.00 0.00 0.00 97 1012.1
20260506161558 78 45 2.0 8.0 0.00 0.00 0.00 97 1012.0
20260506160053 78 9 3.0 5.0 0.00 0.00 0.00 97 1011.7
20260506154550 77 66 3.0 5.0 0.00 0.00 0.00 97 1011.3
20260506153047 77 55 3.0 6.0 0.00 0.00 0.00 98 1011.0
20260506151547 77 100 1.0 6.0 0.00 0.00 0.00 99 1010.8
20260506150045 76 74 2.0 6.0 0.00 0.00 0.00 99 1010.7
20260506144559 76 85 2.0 6.0 0.00 0.00 0.00 100 1010.8
20260506143041 76 115 2.0 4.0 0.00 0.00 0.00 100 1010.4
20260506141539 76 121 0.0 4.0 0.00 0.00 0.00 100 1010.3
20260506140037 75 175 0.0 3.0 0.00 0.00 0.00 100 1009.9
20260506134536 75 92 1.0 8.0 0.00 0.00 0.00 100 1009.6
20260506133041 75 101 1.0 6.0 0.00 0.00 0.00 100 1009.6
20260506131536 75 92 4.0 7.0 0.00 0.00 0.00 100 1009.6
20260506130037 75 113 1.0 6.0 0.00 0.00 0.00 100 1009.8
20260506124531 74 108 1.0 3.0 0.00 0.00 0.00 100 1009.8
20260506123030 74 112 0.0 4.0 0.00 0.00 0.00 100 1009.7
20260506120029 74 117 0.0 4.0 0.00 0.00 0.00 100 1009.4
20260506114526 74 157 1.0 3.0 0.00 0.00 0.00 100 1009.4
20260506113024 74 159 1.0 2.0 0.00 0.00 0.00 100 1009.4
20260506111523 74 160 0.0 2.0 0.00 0.00 0.00 100 1009.2
20260506110023 74 160 0.0 2.0 0.00 0.00 0.00 100 1009.2
20260506104526 74 160 0.0 2.0 0.00 0.00 0.00 100 1009.1